Regional Weather Roundup
Issued by NWS Newport/Morehead, NC

Current Version | Previous Version | Graphics & Text | Print | Product List | Glossary Off
Versions: 1 2 3 4 5 6 7 8 9 10 11 12 13 14 15 16 17 18 19 20 21 22 23 24 25 26 27 28 29 30 31 32 33 34 35 36 37 38 39 40 41 42 43 44 45 46 47 48 49 50
000 ASUS42 KMHX 291625 RWRMHX WEATHER ROUNDUP FOR EASTERN NORTH CAROLINA NATIONAL WEATHER SERVICE NEWPORT/MOREHEAD CITY NC 1200 PM EDT FRI MAY 29 2015 NOTE: "FAIR" INDICATES FEW OR NO CLOUDS BELOW 12,000 FEET WITH NO SIGNIFICANT WEATHER AND/OR OBSTRUCTIONS TO VISIBILITY NCZ015>017-031-032-045>047-102-103-291700- NORTH COAST CITY SKY/WX TMP DP RH WIND PRES REMARKS EDENTON N/A 81 64 56 S5 30.26S ELIZABETH CITY SUNNY 81 65 58 E9 30.27R KITTY HAWK SUNNY 77 66 68 E6 30.27S MANTEO SUNNY 77 67 70 E12 30.28S $$ NCZ045>047-081-094-103-104-291700- CENTRAL COAST CITY SKY/WX TMP DP RH WIND PRES REMARKS FRISCO MOSUNNY 83 66 56 SE10 30.26S SWANQUARTER N/A 82 N/A N/A S7G15 30.21F $$ NCZ095-097-098-100-101-291700- SOUTHERN COAST CITY SKY/WX TMP DP RH WIND PRES REMARKS BEAUFORT SUNNY 80 68 66 SE9 30.25F CEDAR ISLAND N/A 79 N/A N/A NE5G10 30.30S JACKSONVILLE SUNNY 82 63 52 E7 30.24F PINEY ISLAND SUNNY N/A N/A N/A NE12 30.25F WILMINGTON SUNNY 81 65 58 SE8 30.24S $$ NCZ011>013-027>030-043-044-078>080-089-090>093-098-291700- COASTAL PLAIN CITY SKY/WX TMP DP RH WIND PRES REMARKS AHOSKIE SUNNY 80 64 58 NW3 30.26S CLINTON SUNNY 82 61 49 E5 30.26S ELIZABETHTOWN SUNNY 82 56 40 SE5 30.24F GOLDSBORO SUNNY 82 59 44 VRB1 30.22F GREENVILLE SUNNY 82 59 44 E6 30.26S HAVELOCK MOSUNNY 83 64 52 NE9 30.26S KENANSVILLE SUNNY 81 56 42 N3 30.26F KINSTON NOT AVBL NEW BERN MOSUNNY 83 63 50 SE7 30.26S RICHLANDS MOSUNNY 84 63 48 E6 30.24F ROCKY MOUNT SUNNY 82 64 54 NE6 30.26S WASHINGTON MOSUNNY 80 62 54 SW3G16 30.26S WHITEVILLE SUNNY 82 59 46 E3 30.24S $$ AMZ130-135-150-152-154-156-158-170-250-252-270-ANZ085-086-088-633-658-670-291700- MARINE OBSERVATIONS STATION/POSITION TIME TEMP WIND PRES WAVE SWELL AIR SEA DIR/SP/G HT/PER HT/PER (UTC) (F) (DEG/KT/KT) (MB) (FT/S) (FT/S) CHESAPEAKE LIGHT 1600 68 140/ 12/ 12 1025.7 64 E VA BEACH 1550 69 67 90/ 4/ 6 1025.1 3/ 8 3/ 8 DUCK 1600 73 60 80/ 7/ 7 1024.4 2 E DUCK 1511 67 N/A 2/ 9 OREGON INLET 1600 75 78 50/ 9/ 11 1025.0 13E OREGON INLT 1600 75 N/A 3/ 9 HATTERAS CG 1600 78 76 100/ 9/ 11 1024.2 DIAMOND BUOY 1550 77 77 100/ 8/ 10 1024.5 3/ 8 3/ 8 CAPE LOOKOUT 1600 75 60/ 10/ 10 1024.1 BEAUFORT LAB 1600 78 76 120/ 6/ 13 1023.5 27 SE WRIGHTSVLE 1600 76 70/ 12/ 14 N/A 5 SE WRIGHTSVLE 1508 76 77 70/ 10/ 14 1024.5 225 S CAPE HAT 1550 75 74 70/ 16/ 19 1022.9 6/ 8 3/ 8 41 SE CHARLESTON 1550 77 78 90/ 10/ 12 1022.8 4/ 8 3/ 8 $$

USA.gov is the U.S. government's official web portal to all federal, state and local government web resources and services.